Location: Firdgum
(53.2488°N, 5.5615°E)
Time: 17:15:09
(UTC+00:00)

Cosmos 44 - Pass Details

Date: 08 December 2019
Orbit: 595 x 767 km, 65.1° (Epoch: 20 January)

Event Time Altitude Azimuth Distance (km) Brightness Sun altitude
Rises 06:42:06 0° 212° (SSW) 3,007 6.5 -7.9°
Reaches altitude 10° 06:44:28 10° 209° (SSW) 2,069 5.7 -7.6°
Maximum altitude 06:49:06 65° 128° (SE) 703 3.7 -7.0°
Drops below altitude 10° 06:53:32 10° 48° (NE) 1,989 5.9 -6.4°
Sets 06:55:46 0° 45° (NE) 2,880 6.7 -6.1°
